Estación de Quillota
Ultimos registro cada 15 minutos 85
| N° | Estación | Fecha / Hora | Temperatura | Humedad | Lluvia | Velocidad | Dirección | Radiación | Presion |
| 85 | Quillota | 05-05-2026 21:00 | 13 | 88 | 0 | 0,4 | 300 | 0 | 1016,2 |
| 84 | Quillota | 05-05-2026 20:45 | 13 | 88 | 0 | 0 | 277 | 0 | 1016 |
| 83 | Quillota | 05-05-2026 20:30 | 13,1 | 88 | 0 | 0,9 | 264 | 0 | 1016 |
| 82 | Quillota | 05-05-2026 20:15 | 13,1 | 87 | 0 | 0,9 | 263 | 0 | 1015,9 |
| 81 | Quillota | 05-05-2026 20:00 | 13,1 | 88 | 0 | 1,3 | 264 | 0 | 1015,6 |
| 80 | Quillota | 05-05-2026 19:45 | 13,2 | 87 | 0 | 0,9 | 271 | 0 | 1015,5 |
| 79 | Quillota | 05-05-2026 19:30 | 13,3 | 87 | 0 | 1,3 | 225 | 0 | 1015 |
| 78 | Quillota | 05-05-2026 19:15 | 13,3 | 87 | 0 | 0,9 | 277 | 0 | 1015 |
| 77 | Quillota | 05-05-2026 19:00 | 13,3 | 87 | 0 | 0,9 | 272 | 0 | 1015 |
| 76 | Quillota | 05-05-2026 18:45 | 13,3 | 87 | 0 | 0 | 222 | 0 | 1014,9 |
| 75 | Quillota | 05-05-2026 18:30 | 13,3 | 86 | 0 | 0,9 | 272 | 0 | 1014,9 |
| 74 | Quillota | 05-05-2026 18:15 | 13,5 | 85 | 0 | 0 | 263 | 0 | 1014,6 |
| 73 | Quillota | 05-05-2026 18:00 | 13,7 | 85 | 0 | 0,4 | 263 | 0 | 1014,6 |
| 72 | Quillota | 05-05-2026 17:45 | 14 | 84 | 0 | 0,9 | 280 | 21 | 1014,5 |
| 71 | Quillota | 05-05-2026 17:30 | 14,1 | 84 | 0 | 1,8 | 261 | 49 | 1014,7 |
| 70 | Quillota | 05-05-2026 17:15 | 14,3 | 83 | 0 | 1,3 | 250 | 70 | 1014,3 |
| 69 | Quillota | 05-05-2026 17:00 | 14,5 | 82 | 0 | 3,6 | 256 | 84 | 1014,1 |
| 68 | Quillota | 05-05-2026 16:45 | 14,9 | 81 | 0 | 3,6 | 250 | 163 | 1013,5 |
| 67 | Quillota | 05-05-2026 16:30 | 15,7 | 78 | 0 | 3,6 | 261 | 125 | 1013,5 |
| 66 | Quillota | 05-05-2026 16:15 | 16,7 | 75 | 0 | 3,6 | 255 | 269 | 1013,4 |
| 65 | Quillota | 05-05-2026 16:00 | 16,3 | 76 | 0 | 4,5 | 221 | 141 | 1013,2 |
| 64 | Quillota | 05-05-2026 15:45 | 17,3 | 72 | 0 | 4 | 262 | 297 | 1012,8 |
| 63 | Quillota | 05-05-2026 15:30 | 18,3 | 70 | 0 | 4 | 254 | 364 | 1013,1 |
| 62 | Quillota | 05-05-2026 15:15 | 19,2 | 67 | 0 | 4,5 | 273 | 276 | 1013 |
| 61 | Quillota | 05-05-2026 15:00 | 19,4 | 67 | 0 | 4,5 | 256 | 396 | 1013 |
| 60 | Quillota | 05-05-2026 14:45 | 19 | 68 | 0 | 3,6 | 254 | 483 | 1012,7 |
| 59 | Quillota | 05-05-2026 14:30 | 20,1 | 65 | 0 | 4,5 | 242 | 359 | 1012,5 |
| 58 | Quillota | 05-05-2026 14:15 | 20,8 | 64 | 0 | 3,1 | 232 | 478 | 1012,5 |
| 57 | Quillota | 05-05-2026 14:00 | 20,9 | 63 | 0 | 3,1 | 244 | 536 | 1012,3 |
| 56 | Quillota | 05-05-2026 13:45 | 21,3 | 62 | 0 | 4 | 202 | 580 | 1012,5 |
| 55 | Quillota | 05-05-2026 13:30 | 20,4 | 64 | 0 | 2,2 | 218 | 575 | 1012,5 |
| 54 | Quillota | 05-05-2026 13:15 | 21,4 | 62 | 0 | 4 | 232 | 483 | 1012,7 |
| 53 | Quillota | 05-05-2026 13:00 | 21,7 | 61 | 0 | 4 | 281 | 218 | 1012,6 |
| 52 | Quillota | 05-05-2026 12:45 | 21,5 | 62 | 0 | 4,9 | 256 | 640 | 1012,5 |
| 51 | Quillota | 05-05-2026 12:30 | 21,5 | 62 | 0 | 3,6 | 261 | 559 | 1012,5 |
| 50 | Quillota | 05-05-2026 12:15 | 21,4 | 62 | 0 | 1,8 | 239 | 596 | 1012,4 |
| 49 | Quillota | 05-05-2026 12:00 | 21,4 | 58 | 0 | 2,2 | 185 | 559 | 1012,6 |
| 48 | Quillota | 05-05-2026 11:45 | 20,6 | 57 | 0 | 2,2 | 317 | 540 | 1012,6 |
| 47 | Quillota | 05-05-2026 11:30 | 20,3 | 58 | 0 | 0,9 | 305 | 550 | 1012,6 |
| 46 | Quillota | 05-05-2026 11:15 | 19,8 | 56 | 0 | 0,4 | 149 | 555 | 1012,8 |
| 45 | Quillota | 05-05-2026 11:00 | 19,2 | 60 | 0 | 1,8 | 285 | 543 | 1013 |
| 44 | Quillota | 05-05-2026 10:45 | 18,6 | 61 | 0 | 1,8 | 281 | 564 | 1013 |
| 43 | Quillota | 05-05-2026 10:30 | 18,4 | 59 | 0 | 0,9 | 254 | 234 | 1013 |
| 42 | Quillota | 05-05-2026 10:15 | 17,7 | 62 | 0 | 1,3 | 229 | 207 | 1012,9 |
| 41 | Quillota | 05-05-2026 10:00 | 16,9 | 66 | 0 | 1,3 | 233 | 176 | 1012,7 |
| 40 | Quillota | 05-05-2026 09:45 | 16,9 | 68 | 0 | 1,8 | 241 | 320 | 1012,4 |
| 39 | Quillota | 05-05-2026 09:30 | 15,6 | 76 | 0 | 0,4 | 241 | 272 | 1012,5 |
| 38 | Quillota | 05-05-2026 09:15 | 13,9 | 81 | 0 | 0,9 | 167 | 234 | 1012,6 |
| 37 | Quillota | 05-05-2026 09:00 | 12,6 | 87 | 0 | 1,3 | 125 | 200 | 1012,9 |
| 36 | Quillota | 05-05-2026 08:45 | 11,3 | 92 | 0 | 0,4 | 74 | 167 | 1013 |
| 35 | Quillota | 05-05-2026 08:30 | 9,7 | 94 | 0 | 0 | 185 | 137 | 1013,3 |
| 34 | Quillota | 05-05-2026 08:15 | 8,3 | 92 | 0 | 0 | 73 | 63 | 1013,3 |
| 33 | Quillota | 05-05-2026 08:00 | 7,7 | 92 | 0 | 0 | 325 | 19 | 1013,4 |
| 32 | Quillota | 05-05-2026 07:45 | 7,8 | 90 | 0 | 0 | 127 | 7 | 1013,5 |
| 31 | Quillota | 05-05-2026 07:30 | 8,1 | 90 | 0 | 0,4 | 185 | 5 | 1013,3 |
| 30 | Quillota | 05-05-2026 07:15 | 8,2 | 92 | 0 | 0,9 | 185 | 0 | 1013,3 |
| 29 | Quillota | 05-05-2026 07:00 | 7,8 | 90 | 0 | 0,4 | 185 | 0 | 1013,4 |
| 28 | Quillota | 05-05-2026 06:45 | 8,6 | 90 | 0 | 0,4 | 185 | 0 | 1013,3 |
| 27 | Quillota | 05-05-2026 06:30 | 8,1 | 90 | 0 | 0,9 | 185 | 0 | 1013 |
| 26 | Quillota | 05-05-2026 06:15 | 8,6 | 91 | 0 | 0 | 185 | 0 | 1013 |
| 25 | Quillota | 05-05-2026 06:00 | 9,1 | 92 | 0 | 0,9 | 130 | 0 | 1013,1 |
| 24 | Quillota | 05-05-2026 05:45 | 9 | 92 | 0 | 2,7 | 282 | 0 | 1012,7 |
| 23 | Quillota | 05-05-2026 05:30 | 8 | 91 | 0 | 0,4 | 185 | 0 | 1013,3 |
| 22 | Quillota | 05-05-2026 05:15 | 8,6 | 92 | 0 | 0 | 96 | 0 | 1012,9 |
| 21 | Quillota | 05-05-2026 05:00 | 8,1 | 92 | 0 | 0 | 111 | 0 | 1013 |
| 20 | Quillota | 05-05-2026 04:45 | 8,2 | 91 | 0 | 0 | 112 | 0 | 1012,8 |
| 19 | Quillota | 05-05-2026 04:30 | 7,8 | 93 | 0 | 0,4 | 106 | 0 | 1013,1 |
| 18 | Quillota | 05-05-2026 04:15 | 7,4 | 91 | 0 | 0 | 53 | 0 | 1012,7 |
| 17 | Quillota | 05-05-2026 04:00 | 7,7 | 91 | 0 | 0 | 53 | 0 | 1012,8 |
| 16 | Quillota | 05-05-2026 03:45 | 7,5 | 90 | 0 | 0 | 53 | 0 | 1012,9 |
| 15 | Quillota | 05-05-2026 03:30 | 8,3 | 90 | 0 | 0 | 73 | 0 | 1012,5 |
| 14 | Quillota | 05-05-2026 03:15 | 8,7 | 92 | 0 | 0,9 | 75 | 0 | 1012,7 |
| 13 | Quillota | 05-05-2026 03:00 | 7,8 | 90 | 0 | 0,4 | 75 | 0 | 1012,6 |
| 12 | Quillota | 05-05-2026 02:45 | 8,3 | 90 | 0 | 0 | 185 | 0 | 1012,6 |
| 11 | Quillota | 05-05-2026 02:30 | 8,9 | 92 | 0 | 0,9 | 162 | 0 | 1013 |
| 10 | Quillota | 05-05-2026 02:15 | 8,4 | 91 | 0 | 0 | 80 | 0 | 1013,3 |
| 9 | Quillota | 05-05-2026 02:00 | 8,4 | 91 | 0 | 0 | 80 | 0 | 1013,3 |
| 8 | Quillota | 05-05-2026 01:45 | 8,4 | 89 | 0 | 0 | 185 | 0 | 1013,4 |
| 7 | Quillota | 05-05-2026 01:30 | 9,1 | 89 | 0 | 0 | 185 | 0 | 1013,6 |
| 6 | Quillota | 05-05-2026 01:15 | 9,1 | 91 | 0 | 0 | 185 | 0 | 1013,8 |
| 5 | Quillota | 05-05-2026 01:00 | 9,1 | 89 | 0 | 0 | 185 | 0 | 1013,7 |
| 4 | Quillota | 05-05-2026 00:45 | 9,7 | 90 | 0 | 0 | 78 | 0 | 1014 |
| 3 | Quillota | 05-05-2026 00:30 | 10,1 | 89 | 0 | 0 | 79 | 0 | 1014,1 |
| 2 | Quillota | 05-05-2026 00:15 | 10,8 | 90 | 0 | 0,4 | 79 | 0 | 1014,1 |
| 1 | Quillota | 05-05-2026 00:00 | 10,2 | 89 | 0 | 0,4 | 185 | 0 | 1014,1 |